Temperature
22 23 23 23 23 23 23 23 22 22 22 22 22 22 22 21 20 20 20 20 19 19 18 17 17 16 16 16 16 16 15 15 15 15 15 15 15 15 15 15 15 15 15 15
23 23 23 23 22 22 23 23 22 22 22 22 22 22 23 22 21 21 20 20 19 19 18 17 17 16 16 16 16 16 15 15 15 15 15 15 15 15 15 15 15 15 15 15
23 23 23 23 22 22 23 23 22 22 22 22 22 23 23 22 21 20 20 20 20 19 19 17 17 16 16 16 16 16 15 15 15 15 15 15 15 15 15 15 15 15 15 15
23 23 22 23 23 23 22 22 22 22 22 22 22 22 23 23 22 22 21 20 20 19 18 18 17 17 16 16 16 16 15 15 15 15 15 15 15 15 15 15 15 15 15 15
23 23 22 22 23 23 22 22 22 22 23 23 23 23 23 23 23 23 22 21 20 19 18 18 17 17 16 16 16 16 16 15 15 15 15 15 15 15 15 15 15 15 15 15
23 22 22 23 22 22 22 22 22 23 23 22 23 23 23 24 23 23 22 21 20 19 18 18 17 17 16 16 16 16 16 15 15 15 15 15 15 15 15 15 15 15 15 15
22 22 22 22 22 22 23 23 22 23 22 23 23 23 23 24 24 23 23 22 20 20 19 18 17 17 17 16 16 16 16 16 15 15 15 15 15 15 15 15 15 15 15 15
22 22 23 23 23 23 23 23 22 22 22 23 23 23 24 24 23 22 22 21 20 20 19 18 18 17 17 17 16 16 16 16 16 15 15 15 15 15 15 15 15 15 15 15
23 22 23 22 23 23 23 23 23 23 23 23 23 23 24 24 23 23 22 21 21 20 19 18 18 17 17 17 17 16 16 16 16 16 15 15 15 15 15 15 15 15 15 15
23 22 22 22 22 22 23 23 23 23 22 22 23 23 24 23 23 23 23 22 21 20 19 18 18 17 17 17 17 17 16 16 16 16 16 16 15 15 15 15 15 15 15 15
23 22 22 22 22 23 22 22 23 23 23 22 22 23 24 24 23 23 23 21 20 20 19 19 18 17 17 17 17 17 16 16 16 16 16 16 15 15 15 15 15 15 15 15
22 22 22 22 23 22 23 23 23 22 22 22 22 23 24 23 23 22 22 21 20 19 19 18 18 17 17 17 17 17 17 16 16 16 16 16 16 15 15 15 15 15 15 15
21 22 21 22 22 22 22 22 22 23 23 22 22 23 24 23 23 22 21 21 20 19 18 18 18 18 17 17 17 17 17 16 16 16 16 16 15 15 15 15 15 15 15 15
21 22 22 21 22 22 21 21 21 22 22 22 22 23 23 23 23 22 21 20 20 19 19 18 18 18 17 17 17 17 17 16 16 16 16 16 15 15 15 15 15 15 15 15
21 21 22 22 21 21 21 21 21 21 22 22 23 23 23 23 22 21 21 20 19 19 19 18 18 18 17 17 17 17 17 17 16 16 16 16 16 16 16 15 15 15 15 15
20 21 21 21 21 21 20 21 21 21 21 22 22 22 23 22 21 21 20 20 19 19 19 18 18 18 17 17 17 17 17 17 16 16 16 16 16 16 16 15 15 15 15 15
20 21 20 21 21 20 20 21 21 21 22 22 22 22 22 21 21 21 20 19 19 19 18 18 18 18 18 17 17 17 17 16 16 16 16 16 16 16 16 15 15 15 15 15
20 20 20 20 20 19 22 22 21 21 21 22 22 21 21 21 20 20 19 19 19 18 18 18 18 18 17 17 17 17 17 16 16 16 16 16 16 16 15 15 15 15 15 15
19 20 20 20 20 20 21 21 21 21 21 21 21 21 20 19 20 20 19 18 18 18 17 17 17 17 17 17 17 17 17 16 16 16 16 16 15 15 15 15 15 15 15 15
18 19 19 19 19 19 21 21 20 21 21 21 20 20 19 19 21 21 18 18 17 17 17 17 17 17 17 17 17 17 16 16 16 16 15 15 15 15 15 15 15 15 15 15
18 18 18 19 19 20 20 19 19 20 21 20 19 19 19 19 20 19 18 17 17 17 17 17 17 17 17 17 17 16 16 16 16 15 15 15 15 15 15 15 15 14 14 14
18 18 18 18 18 19 19 19 19 20 19 19 18 19 18 18 17 17 17 17 17 16 17 16 16 16 16 16 16 16 16 16 15 15 15 15 15 15 15 14 14 14 14 14
18 19 19 19 19 19 18 18 18 18 18 18 18 17 17 17 16 16 16 16 16 16 16 16 16 16 16 16 16 16 16 15 15 15 15 15 14 14 14 14 14 14 14 13
17 17 17 18 18 17 16 16 16 16 17 17 17 16 16 16 16 15 15 16 15 15 15 15 15 15 15 15 15 15 15 15 15 15 14 14 14 14 14 14 14 14 13 13
17 16 17 17 18 17 16 16 15 15 16 16 16 16 15 15 15 15 15 15 15 15 15 15 15 15 15 15 15 15 15 15 14 14 14 14 14 14 14 14 14 13 13 13
15 16 17 17 17 17 16 15 15 15 15 15 15 15 15 15 15 15 15 15 15 15 15 14 14 14 14 14 14 14 14 14 14 14 14 14 13 13 13 13 13 13 13 13
Wind_Speed
3 3 3 3 2 1 1 1 1 1 1 1 1 2 0 2 4 5 5 5 5 5 5 5 6 7 7 7 7 6 5 4 3 2 2 2 2 1 2 2 2 2 2 3
4 3 2 2 3 3 3 2 0 1 1 1 2 2 1 2 4 4 5 5 6 6 6 7 8 8 7 7 7 6 5 4 3 2 1 1 1 1 1 1 2 2 2 3
5 1 3 4 4 4 3 3 2 1 1 2 3 1 1 2 3 4 5 6 6 7 7 9 9 9 8 8 7 6 5 4 3 3 2 2 2 2 2 2 1 2 2 3
4 3 4 4 4 4 3 2 3 3 3 0 2 1 1 1 2 3 5 6 7 7 8 9 10 10 9 8 7 7 6 5 4 3 3 3 2 1 1 1 2 2 3 3
4 4 4 4 3 3 1 1 3 3 3 2 2 2 1 1 0 1 3 5 7 8 8 9 10 10 9 8 8 7 7 5 4 4 3 3 2 1 1 1 2 2 3 2
3 3 3 3 2 3 3 4 3 4 4 2 1 3 1 1 1 0 1 4 6 7 9 9 9 9 8 8 8 7 7 6 5 4 4 4 3 3 2 2 2 2 2 2
4 5 4 3 4 5 4 4 3 3 3 1 1 2 1 2 2 2 1 3 5 7 9 10 10 10 9 9 8 8 8 7 6 6 5 5 4 4 3 3 3 3 2 2
5 5 6 5 5 4 5 5 3 2 1 0 2 2 1 2 1 1 1 2 5 7 8 10 10 10 10 10 9 8 8 7 7 6 6 5 5 4 3 3 3 3 2 2
4 3 4 4 3 5 4 5 3 3 2 3 2 1 1 1 1 1 2 3 4 6 8 9 10 10 10 10 9 9 8 7 7 7 6 6 5 4 4 4 3 3 3 2
2 3 4 3 4 2 3 3 4 4 3 3 2 3 2 1 1 2 2 3 4 5 7 9 9 9 9 9 9 8 7 7 6 6 6 5 5 5 4 4 4 4 4 3
4 4 4 6 6 5 5 5 5 4 4 4 3 0 1 1 1 1 1 2 4 5 7 8 8 8 8 8 8 8 7 7 6 6 6 6 5 5 5 4 4 4 4 4
4 3 5 5 2 2 5 5 6 5 4 4 4 1 3 0 1 1 1 2 3 5 6 7 8 8 8 8 8 8 8 7 7 6 6 6 5 6 5 5 5 5 5 5
4 4 4 5 5 4 5 5 6 6 5 6 6 2 2 0 1 1 1 1 3 5 6 6 7 7 8 8 8 8 8 8 7 7 6 6 6 6 6 5 5 5 5 5
4 6 6 5 2 3 6 6 7 8 7 8 8 7 4 3 2 2 1 2 3 5 6 7 7 7 7 7 8 8 8 7 7 7 7 6 6 6 6 5 5 5 5 5
4 7 7 6 4 5 7 9 9 11 11 10 9 9 7 5 4 4 3 2 3 5 6 7 7 7 7 7 7 8 8 8 8 8 7 6 6 5 5 5 5 5 5 5
5 6 6 8 6 7 9 10 12 12 11 11 11 11 7 5 4 4 3 3 4 4 5 6 7 7 7 8 8 7 8 8 8 8 7 6 6 5 5 5 6 5 5 5
6 7 7 8 5 6 9 10 11 11 10 10 11 9 4 4 4 4 4 4 4 4 4 5 6 6 7 7 7 8 7 8 8 8 7 7 6 6 6 5 5 5 5 5
8 8 6 6 6 10 4 1 5 8 9 9 8 5 5 5 5 4 3 3 3 3 4 4 4 5 6 6 7 7 8 8 8 8 7 7 7 7 6 5 5 5 5 5
10 9 7 7 9 9 6 4 5 7 8 6 7 6 4 3 3 4 2 2 3 3 3 4 4 5 6 6 6 7 8 8 8 7 7 7 7 7 7 6 6 5 5 5
8 10 9 9 9 9 5 2 4 7 8 4 5 5 4 4 5 4 3 2 2 2 2 3 3 4 5 6 7 7 7 7 7 7 7 7 7 7 7 7 6 5 5 5
8 9 12 13 11 8 3 1 3 7 3 1 3 5 6 6 4 2 2 2 2 2 2 3 4 4 4 6 7 7 7 7 7 6 6 6 6 6 6 6 5 5 5 5
9 8 10 10 11 9 3 4 5 4 2 2 3 4 5 4 2 0 2 2 2 2 2 3 3 3 4 5 7 6 6 5 5 6 6 6 6 6 5 5 5 5 5 5
8 7 6 7 6 2 3 4 4 4 4 4 4 4 4 4 3 2 2 2 2 2 2 3 3 4 4 4 5 6 5 4 5 6 6 6 6 6 6 6 5 5 5 5
7 6 7 8 8 6 6 6 6 6 7 6 5 5 4 4 3 3 2 2 2 2 3 3 4 4 4 4 3 3 3 4 5 6 6 5 6 6 6 5 5 5 5 5
7 6 9 12 10 8 8 7 6 6 6 6 5 5 4 4 4 3 3 3 2 2 3 3 4 4 4 4 3 3 3 4 5 5 5 5 5 5 5 5 4 5 5 4
9 10 11 10 9 9 8 7 7 7 8 7 6 5 4 4 4 4 3 3 3 3 3 4 4 3 3 3 3 3 3 4 5 5 5 4 4 4 5 4 4 1 2 2
Wind_Direction
182 195 190 186 209 233 218 199 99 46 37 272 292 313 294 187 198 201 195 192 189 187 174 164 165 168 166 167 168 161 158 154 146 139 152 129 114 107 87 75 73 73 77 87
177 198 206 165 174 203 210 207 179 90 55 289 313 313 300 203 215 218 212 201 195 186 176 167 170 170 172 169 171 166 168 169 163 156 150 146 126 121 93 93 101 92 95 93
193 143 182 184 182 196 215 242 272 291 281 228 289 268 133 152 199 213 217 214 207 199 190 179 179 177 176 176 176 177 182 176 171 166 158 155 134 144 132 126 107 86 87 84
206 175 182 195 201 228 229 230 243 246 260 288 303 324 58 142 192 204 209 209 208 203 199 187 183 185 184 182 185 188 187 185 180 184 195 191 187 157 139 135 123 123 104 91
193 194 205 216 221 229 232 167 218 238 252 255 260 287 70 120 262 193 200 203 206 201 197 191 189 189 186 181 186 192 187 187 187 193 194 206 200 171 138 127 135 132 109 100
219 208 232 225 197 191 167 180 189 215 235 251 278 277 351 56 330 356 190 196 193 191 190 189 186 183 181 180 184 187 187 188 190 198 200 204 193 185 171 168 152 148 131 124
200 194 191 199 181 175 207 227 224 211 212 231 106 260 321 21 334 291 251 198 186 184 184 183 182 182 182 183 186 188 190 192 194 200 204 203 202 201 196 191 168 166 156 147
209 194 187 200 215 203 208 236 260 272 263 231 193 254 29 17 324 262 223 183 181 180 183 183 182 183 185 186 188 190 190 193 195 201 205 205 200 204 205 199 190 185 174 161
218 195 162 192 220 219 206 222 268 277 272 264 229 228 196 117 91 120 147 155 168 178 181 182 181 184 185 187 189 191 190 194 195 200 202 202 200 200 200 199 192 186 181 165
239 217 177 170 187 193 246 200 215 240 257 255 247 247 260 191 102 112 131 145 157 171 178 179 181 185 187 187 188 190 193 198 197 198 197 197 201 199 202 201 192 186 181 170
228 228 193 190 210 202 190 201 225 236 256 274 275 218 39 250 179 150 139 141 157 169 176 178 179 182 183 185 186 188 192 196 195 195 194 194 196 197 198 199 198 192 184 179
209 240 225 212 207 250 231 230 228 243 237 246 270 272 92 82 174 170 150 141 149 161 169 174 176 177 179 185 189 190 192 191 191 193 192 193 190 195 199 195 195 191 187 187
189 224 220 200 193 191 216 221 235 252 252 244 248 239 115 69 250 217 200 163 156 158 162 168 172 179 182 184 187 190 192 191 186 186 190 190 192 197 199 199 194 190 188 184
217 231 240 245 269 215 226 228 228 235 245 246 246 258 249 277 275 268 243 193 170 167 167 168 173 179 184 185 187 188 188 188 184 183 188 192 194 194 195 194 193 192 191 189
228 239 242 258 263 243 244 242 235 239 250 255 258 260 268 267 264 254 235 197 182 182 180 179 180 179 180 184 188 188 188 186 184 185 188 192 189 182 184 182 189 187 187 195
227 239 239 244 240 244 252 251 244 245 252 253 259 263 271 274 252 242 223 200 193 184 187 186 186 182 183 184 186 184 185 186 184 185 187 183 180 176 179 182 183 181 187 195
213 231 240 247 239 252 251 244 237 235 237 243 250 260 257 248 246 236 219 204 199 192 183 182 187 188 189 187 185 182 183 181 185 186 182 179 178 176 180 180 176 178 188 194
225 224 234 245 240 241 249 218 241 243 245 247 250 256 251 255 251 227 224 211 205 194 186 186 185 185 188 185 182 180 177 179 183 185 182 181 181 179 178 178 180 187 192 190
225 221 226 233 241 255 260 241 227 237 249 244 241 245 249 265 231 213 224 229 214 205 198 192 191 186 183 178 177 175 176 179 182 184 186 183 184 181 180 183 188 190 191 191
206 217 225 230 238 246 246 211 243 247 244 237 242 235 218 218 235 236 228 217 197 178 181 175 176 176 177 174 172 175 177 180 187 190 190 185 183 182 186 190 191 186 187 193
192 206 220 232 240 250 264 209 202 224 248 353 244 231 214 225 261 290 196 195 183 162 155 159 162 166 171 171 173 179 181 188 190 187 187 184 183 188 188 188 188 185 185 190
214 215 220 225 235 242 171 175 214 269 337 316 269 249 238 247 276 238 177 169 161 157 153 160 161 162 164 170 176 182 189 190 182 181 185 188 188 187 186 183 184 187 186 191
226 232 231 228 243 296 204 233 269 296 291 297 288 278 250 240 233 222 198 180 172 170 162 164 165 161 159 167 181 186 180 178 179 183 187 190 191 190 188 185 184 188 192 202
228 239 237 242 248 257 262 269 273 276 282 291 291 280 249 232 228 220 208 196 189 186 173 174 172 163 158 161 169 173 168 174 183 186 185 187 190 191 191 190 195 197 199 206
237 224 238 248 254 262 258 257 266 279 282 286 289 276 256 239 226 218 214 208 195 186 182 184 183 178 171 167 170 166 163 178 186 187 186 190 191 189 191 192 204 210 210 214
232 235 239 249 252 258 264 267 271 274 275 276 275 270 255 236 225 217 212 211 207 192 185 187 188 191 187 179 179 174 173 185 191 191 190 191 192 191 193 191 194 203 236 197
Height
1526 1525 1525 1525 1526 1527 1527 1529 1531 1530 1530 1531 1530 1529 1529 1532 1533 1534 1535 1536 1537 1539 1541 1542 1543 1545 1546 1548 1549 1550 1552 1553 1554 1555 1556 1556 1557 1557 1557 1557 1557 1556 1557 1556
1525 1526 1525 1526 1527 1528 1528 1529 1530 1530 1530 1530 1529 1528 1527 1529 1531 1532 1533 1534 1536 1538 1540 1541 1543 1544 1546 1548 1549 1550 1552 1553 1554 1555 1556 1556 1557 1557 1557 1557 1557 1557 1557 1557
1524 1525 1525 1526 1527 1528 1528 1529 1530 1531 1530 1529 1529 1527 1525 1526 1529 1531 1532 1533 1534 1536 1538 1540 1542 1543 1545 1547 1548 1550 1551 1553 1554 1554 1556 1556 1557 1557 1558 1558 1557 1557 1557 1557
1524 1525 1526 1525 1526 1526 1529 1527 1529 1530 1530 1530 1530 1533 1525 1523 1525 1527 1529 1530 1532 1534 1536 1538 1540 1542 1544 1546 1547 1549 1551 1552 1553 1554 1555 1556 1557 1558 1558 1558 1558 1558 1558 1558
1523 1524 1525 1526 1525 1526 1526 1528 1528 1528 1528 1528 1527 1529 1524 1521 1522 1522 1525 1527 1529 1532 1534 1536 1538 1541 1543 1545 1546 1548 1550 1551 1552 1553 1554 1555 1557 1557 1557 1558 1558 1558 1558 1558
1522 1524 1524 1524 1525 1526 1527 1528 1527 1526 1525 1533 1528 1529 1527 1519 1520 1520 1523 1525 1527 1530 1532 1535 1537 1539 1541 1543 1545 1547 1549 1550 1551 1552 1553 1555 1556 1556 1557 1558 1558 1558 1558 1558
1523 1523 1524 1525 1525 1526 1526 1528 1533 1533 1534 1531 1525 1528 1524 1517 1518 1520 1521 1523 1525 1528 1530 1533 1535 1537 1540 1542 1544 1545 1547 1549 1550 1551 1553 1554 1555 1556 1557 1557 1558 1558 1558 1559
1524 1525 1521 1522 1522 1523 1523 1524 1533 1539 1537 1529 1526 1526 1519 1517 1518 1520 1521 1522 1524 1526 1528 1531 1533 1535 1538 1540 1542 1544 1546 1547 1549 1550 1552 1553 1554 1555 1556 1556 1557 1558 1558 1558
1520 1522 1519 1521 1521 1520 1522 1522 1521 1525 1527 1531 1525 1520 1516 1516 1517 1518 1520 1521 1523 1525 1527 1529 1532 1534 1536 1538 1540 1542 1544 1546 1547 1549 1550 1552 1553 1554 1555 1555 1556 1557 1557 1558
1517 1522 1519 1521 1522 1522 1520 1520 1524 1526 1534 1535 1528 1523 1519 1515 1516 1516 1518 1520 1522 1524 1526 1528 1530 1532 1535 1537 1539 1541 1543 1544 1546 1548 1549 1550 1551 1553 1553 1554 1555 1556 1557 1558
1517 1520 1521 1520 1519 1519 1522 1523 1521 1522 1523 1530 1533 1525 1511 1513 1514 1516 1518 1520 1521 1523 1525 1527 1529 1531 1533 1536 1537 1539 1541 1543 1545 1546 1548 1549 1550 1551 1552 1553 1554 1555 1556 1557
1517 1517 1519 1517 1516 1517 1517 1517 1519 1525 1525 1523 1526 1523 1511 1513 1515 1517 1518 1519 1521 1522 1524 1526 1528 1530 1532 1534 1536 1538 1539 1541 1543 1544 1546 1547 1548 1550 1551 1552 1553 1554 1555 1556
1518 1518 1522 1522 1522 1520 1518 1518 1518 1518 1519 1521 1526 1522 1511 1513 1514 1516 1518 1519 1520 1521 1523 1525 1526 1528 1530 1532 1534 1536 1537 1539 1541 1543 1544 1546 1547 1548 1549 1551 1552 1553 1554 1555
1518 1515 1518 1522 1517 1516 1518 1519 1519 1519 1520 1519 1518 1515 1511 1512 1513 1515 1517 1518 1519 1520 1522 1523 1524 1526 1528 1530 1532 1533 1535 1537 1539 1541 1542 1544 1545 1546 1548 1549 1550 1552 1553 1553
1517 1515 1514 1513 1514 1516 1517 1517 1518 1517 1514 1516 1512 1512 1509 1511 1513 1514 1516 1517 1518 1519 1520 1521 1523 1524 1526 1527 1529 1531 1533 1535 1537 1539 1540 1542 1544 1545 1546 1547 1548 1550 1551 1552
1516 1514 1514 1515 1515 1515 1516 1514 1514 1514 1513 1512 1512 1511 1508 1511 1512 1513 1514 1515 1516 1517 1518 1519 1521 1522 1523 1525 1527 1529 1530 1532 1535 1537 1538 1540 1541 1543 1544 1545 1547 1548 1549 1550
1514 1513 1515 1514 1513 1515 1515 1508 1509 1509 1507 1508 1510 1508 1508 1510 1511 1511 1512 1513 1514 1515 1516 1517 1519 1520 1522 1523 1525 1526 1528 1530 1532 1534 1536 1537 1539 1541 1542 1544 1545 1546 1547 1548
1513 1512 1513 1513 1516 1522 1505 1502 1504 1506 1505 1504 1505 1506 1508 1509 1509 1510 1511 1512 1513 1513 1514 1515 1516 1518 1520 1521 1523 1524 1526 1528 1530 1532 1533 1535 1537 1538 1540 1541 1542 1544 1545 1546
1512 1512 1513 1513 1514 1510 1504 1503 1504 1505 1503 1502 1503 1505 1507 1508 1507 1507 1508 1510 1511 1511 1512 1513 1514 1516 1517 1519 1520 1522 1523 1525 1527 1529 1531 1532 1534 1536 1537 1539 1540 1542 1543 1544
1511 1510 1511 1512 1515 1514 1502 1500 1502 1504 1502 1500 1502 1503 1505 1506 1504 1504 1506 1507 1508 1509 1510 1511 1512 1513 1515 1516 1518 1520 1521 1523 1524 1526 1528 1530 1532 1533 1535 1536 1538 1539 1541 1542
1508 1510 1510 1509 1510 1502 1498 1501 1503 1506 1500 1500 1500 1502 1503 1503 1503 1504 1504 1505 1506 1507 1508 1509 1510 1511 1512 1514 1516 1517 1519 1520 1522 1524 1526 1527 1529 1531 1533 1534 1535 1537 1538 1539
1501 1503 1504 1504 1508 1504 1499 1501 1501 1499 1498 1499 1500 1500 1501 1501 1502 1502 1503 1503 1504 1505 1506 1507 1508 1509 1510 1512 1513 1515 1516 1518 1520 1521 1523 1525 1526 1528 1530 1531 1533 1534 1535 1536
1498 1497 1495 1497 1498 1497 1498 1499 1500 1500 1499 1499 1499 1499 1500 1500 1500 1501 1501 1502 1502 1503 1504 1505 1506 1507 1508 1509 1511 1513 1514 1515 1517 1518 1520 1522 1524 1525 1527 1528 1530 1531 1532 1533
1496 1498 1497 1496 1494 1496 1497 1498 1498 1499 1498 1498 1498 1498 1498 1498 1498 1499 1499 1500 1500 1501 1502 1503 1504 1505 1506 1507 1509 1510 1512 1513 1514 1516 1517 1519 1521 1522 1524 1525 1526 1528 1529 1529
1494 1496 1494 1492 1493 1495 1495 1496 1496 1496 1496 1495 1496 1496 1495 1496 1496 1497 1497 1498 1498 1499 1500 1501 1502 1503 1504 1505 1507 1508 1509 1510 1512 1513 1515 1516 1518 1519 1520 1521 1523 1524 1525 1526
1492 1492 1491 1489 1490 1491 1491 1492 1493 1493 1493 1493 1493 1493 1493 1493 1493 1494 1495 1495 1496 1497 1498 1499 1500 1500 1502 1503 1504 1505 1506 1508 1509 1511 1512 1513 1515 1516 1517 1518 1519 1520 1521 1522